Theta_e
300 300 300 300 300 300 300 300 300 300 300 301 301 301 301 301 302 305 307 306 303 303 306 308 311 321 323 327 324 323 326 327 325 324 322 322 323 323 325 330 331 332 334 332 331
300 300 300 300 299 300 300 300 301 302 302 302 303 302 301 302 303 307 308 304 304 304 308 310 310 317 322 323 326 325 328 328 327 325 322 321 322 324 327 327 332 331 331 330 331
300 300 300 300 300 300 300 303 303 303 303 303 303 304 304 304 307 311 309 308 308 307 309 311 312 311 319 323 324 327 328 328 327 325 321 321 323 324 325 328 332 333 331 330 329
300 300 300 300 300 301 302 303 303 303 303 303 304 304 303 303 309 308 306 305 304 304 311 314 313 312 316 320 322 326 327 327 327 326 322 322 322 323 323 324 328 329 329 328 329
300 300 300 300 300 301 302 304 304 304 304 304 305 304 305 308 308 308 309 307 308 308 308 309 314 314 315 317 319 323 324 325 325 326 325 323 324 324 325 325 324 325 326 327 329
300 300 300 300 300 301 302 304 304 304 304 304 305 304 310 310 308 310 308 310 310 309 309 308 312 314 315 315 318 320 321 322 324 325 326 327 327 327 328 328 329 329 330 329 329
300 300 300 300 301 302 302 303 303 303 303 304 305 305 311 308 307 308 310 310 309 309 310 309 308 311 315 316 315 316 319 320 323 323 326 325 329 330 327 328 329 329 329 329 329
300 300 300 301 301 302 302 302 302 303 303 306 306 307 310 307 307 309 309 309 309 308 308 309 308 308 310 315 315 316 317 319 321 322 322 325 328 329 328 327 328 328 328 328 328
300 300 301 301 302 302 302 302 303 304 305 306 310 311 309 307 307 307 309 309 309 309 309 308 308 309 309 313 315 317 317 319 319 321 322 322 325 326 325 326 327 327 327 327 327
301 301 300 301 302 302 303 303 304 304 305 306 306 311 308 308 307 307 308 308 309 309 309 310 310 312 312 311 313 315 317 317 318 320 321 322 323 324 323 325 325 325 326 326 326
300 301 301 301 303 303 304 308 310 310 309 308 309 308 308 308 307 307 308 308 309 309 311 310 311 311 311 312 312 313 315 318 318 319 320 321 322 323 323 323 324 324 324 325 325
298 301 301 301 304 306 306 308 308 308 309 308 308 308 308 307 308 307 308 308 309 310 310 310 311 311 311 310 311 312 314 316 318 317 319 320 322 322 323 323 323 324 324 324 324
298 300 302 301 304 307 308 308 308 308 310 308 308 308 308 307 308 308 307 308 310 310 310 310 310 310 310 310 310 310 312 313 315 317 318 319 321 322 322 322 322 322 322 322 322
299 300 304 301 305 307 309 308 308 308 312 308 309 308 307 307 308 307 308 308 309 309 309 310 310 310 310 310 311 310 310 311 313 316 318 319 321 321 321 322 322 321 321 321 321
302 301 305 303 305 309 308 308 308 308 312 308 309 307 308 308 307 307 307 309 309 309 310 310 310 311 311 311 310 310 310 310 313 314 317 317 319 319 321 321 322 322 321 320 320
303 306 303 302 308 308 308 307 307 312 311 309 308 309 310 309 308 307 307 307 308 310 312 311 311 312 312 312 312 310 310 310 311 314 316 317 318 319 320 320 321 321 320 319 319
305 306 303 307 310 308 308 308 312 312 309 309 309 310 310 309 308 308 308 309 311 312 311 312 312 313 312 313 312 310 309 311 312 313 314 315 316 318 319 319 319 320 319 319 320
305 307 305 308 309 308 309 309 311 309 309 309 310 310 310 308 309 308 308 309 311 311 312 314 313 311 311 314 312 310 310 311 312 313 313 313 315 317 317 318 317 317 319 319 321
305 309 309 309 309 307 309 310 309 308 309 310 310 309 309 309 309 309 309 309 310 310 311 312 311 311 312 313 313 312 311 311 311 312 315 313 314 315 316 318 318 319 319 323 324
304 311 311 309 308 309 310 308 308 307 308 309 311 309 310 310 309 309 309 308 309 309 310 310 313 311 311 311 312 311 311 311 311 315 314 314 315 315 317 317 317 321 321 320 323
307 311 309 309 307 309 310 306 307 307 307 310 310 310 310 310 309 309 309 309 309 309 309 310 311 311 311 312 311 312 311 314 313 314 313 314 315 317 319 320 320 320 319 320 328
307 311 308 306 309 309 307 306 304 308 308 309 309 310 310 310 309 309 309 309 308 309 310 311 312 312 311 311 311 311 312 313 317 314 314 315 317 319 320 319 319 319 318 319 326
306 307 307 303 310 308 304 305 306 308 309 309 309 309 309 309 310 310 310 309 308 309 310 311 312 312 310 313 312 311 310 311 313 315 318 315 315 319 318 317 317 318 318 318 319
304 309 308 306 306 305 305 306 307 306 307 308 309 308 309 310 310 309 310 309 308 309 308 309 312 311 313 311 310 310 311 311 312 314 313 313 315 316 317 317 317 317 317 317 317
304 306 306 308 309 307 307 306 306 307 308 307 308 309 309 309 310 310 309 310 309 308 309 310 313 311 311 311 310 310 310 310 311 312 313 313 314 315 316 316 317 316 315 316 317
304 304 304 305 306 307 306 306 305 306 306 306 307 308 308 309 308 309 309 310 311 310 310 311 314 312 312 311 311 311 311 311 310 311 312 312 313 313 313 312 313 313 315 316 318
302 302 301 304 306 306 307 306 306 306 305 305 306 307 308 308 308 308 308 308 309 310 309 311 311 312 312 310 311 311 310 311 311 311 311 312 314 314 314 314 314 313 314 317 319
Wind_Speed
13 13 13 13 12 13 13 12 13 14 14 14 12 13 13 13 13 11 7 9 8 11 15 14 10 8 13 19 20 16 11 17 22 19 14 7 16 21 11 13 11 4 2 5 4
14 14 14 14 14 13 12 12 12 13 13 13 13 12 11 12 12 5 4 4 1 4 5 10 15 11 18 21 18 18 16 26 20 14 8 19 17 15 8 18 17 12 8 5 6
13 13 13 14 14 13 11 10 13 15 15 14 13 13 13 12 3 0 2 1 7 8 6 6 11 18 23 21 29 26 26 22 25 18 14 21 21 16 14 18 21 19 12 8 4
14 14 13 14 13 12 10 11 13 14 15 12 13 13 14 7 1 2 12 15 15 13 5 3 8 19 21 25 27 26 29 31 32 21 16 21 25 27 26 25 23 12 13 14 15
14 13 13 14 13 12 10 11 13 15 13 12 14 17 10 3 6 7 9 8 7 7 4 7 11 16 24 18 30 29 29 31 30 30 24 23 28 26 29 26 28 28 25 25 22
14 13 13 13 12 11 9 10 12 13 14 14 16 10 5 6 8 8 12 7 6 8 7 8 11 13 19 25 25 19 29 35 36 29 26 28 31 28 33 27 31 29 30 30 25
15 14 14 14 12 11 10 10 14 14 13 12 12 8 4 8 12 11 12 8 9 7 8 9 13 15 7 16 26 29 26 25 24 30 31 24 28 37 40 32 31 28 28 31 29
17 15 14 14 12 10 11 13 15 13 8 9 8 5 1 11 15 12 10 10 10 9 7 8 9 17 23 20 19 17 22 24 32 25 24 25 33 37 37 36 34 35 35 34 32
18 16 14 13 11 10 13 16 14 9 6 6 6 2 3 7 13 12 11 12 13 9 9 7 7 15 15 17 17 20 25 30 27 27 24 20 34 36 43 38 33 33 34 33 33
20 18 17 14 11 10 15 14 11 5 7 5 4 3 1 9 15 14 10 12 10 10 11 10 10 12 12 15 21 26 25 25 27 23 27 30 35 29 32 20 22 30 36 36 35
22 20 17 13 10 10 13 10 6 2 6 7 3 5 7 13 14 15 11 11 8 9 11 13 12 14 15 18 24 25 28 24 20 20 25 25 31 33 31 38 37 36 31 32 32
25 21 18 12 7 9 10 4 4 5 8 7 8 8 6 7 16 13 6 10 11 14 14 12 16 17 17 16 20 21 24 29 24 13 18 24 31 31 27 29 36 36 36 35 34
27 23 19 10 4 7 3 4 4 7 7 2 4 5 3 12 12 7 16 11 12 14 14 16 17 16 10 13 18 22 25 24 27 22 19 21 28 28 26 26 29 31 33 35 36
27 25 17 6 0 4 2 5 10 2 5 4 3 3 5 16 9 15 7 6 10 16 15 15 10 10 15 20 18 21 21 25 24 22 24 20 22 23 24 28 29 36 38 38 36
28 23 14 4 4 2 4 10 5 2 4 3 3 2 11 9 11 8 7 12 16 18 15 19 20 18 16 18 20 22 19 21 21 22 24 29 19 22 18 22 22 20 29 33 33
27 16 9 5 4 2 8 4 3 5 1 1 2 9 10 11 8 8 10 13 15 16 15 19 19 18 19 19 23 20 22 20 22 19 20 25 21 19 21 25 23 19 26 26 28
24 9 4 6 1 6 9 2 5 4 2 2 7 12 16 8 10 7 12 10 7 8 12 18 5 10 17 23 21 18 17 12 15 18 22 23 20 19 6 8 4 6 8 13 14
20 2 4 1 3 7 4 6 4 2 4 10 11 18 7 8 8 11 8 11 2 8 14 8 8 10 4 10 17 19 19 14 19 16 20 27 27 21 22 26 24 22 11 9 10
16 1 1 2 4 9 9 5 4 5 4 9 15 8 3 4 7 8 12 6 5 9 9 12 9 8 8 13 15 20 18 20 23 21 16 17 26 26 21 13 8 8 5 7 13
12 2 1 2 7 5 5 4 3 3 7 7 9 3 11 13 12 9 9 3 7 5 12 9 11 5 2 7 14 15 16 13 13 8 18 15 20 15 24 23 17 4 5 11 16
7 4 3 3 7 5 3 5 7 5 8 5 9 12 13 13 10 12 6 12 2 11 13 15 7 11 12 7 6 10 13 13 7 13 13 11 14 20 9 12 9 6 11 17 18
8 3 4 7 3 1 4 7 8 5 4 7 7 11 10 12 11 14 11 8 18 14 16 12 6 12 15 9 8 5 10 5 7 12 16 13 4 12 18 13 6 10 16 19 20
12 4 5 6 2 5 5 7 6 6 4 4 7 5 11 14 8 8 12 14 15 14 6 8 4 9 7 5 5 7 13 13 14 14 13 14 7 14 10 3 9 14 19 20 22
6 3 0 4 4 6 9 3 4 4 11 6 10 15 14 13 12 10 18 11 15 20 15 7 11 13 13 18 13 11 11 12 14 11 16 17 24 10 13 13 15 17 20 21 22
4 2 4 3 4 10 8 7 8 6 4 11 7 7 11 9 17 21 14 19 24 23 21 5 10 17 18 20 18 19 19 18 19 19 20 19 22 19 19 18 18 23 27 22 20
6 5 5 15 7 8 1 4 8 7 10 13 12 15 14 18 18 24 22 18 7 8 7 5 7 13 17 16 17 20 21 21 22 22 21 23 27 24 27 30 25 28 24 20 17
3 4 3 7 5 5 5 5 12 15 11 12 12 15 18 20 24 30 32 31 21 10 7 4 7 8 14 14 12 15 17 19 18 20 18 21 24 21 23 22 19 25 22 21 19
Wind_Direction
10 9 5 1 354 346 340 336 332 332 334 335 331 325 318 316 311 308 288 251 239 250 235 238 234 224 208 219 221 225 242 245 244 240 245 256 247 251 246 256 204 190 180 93 229
7 5 3 360 358 354 349 347 347 347 345 345 346 341 332 331 322 318 261 164 111 308 274 243 228 208 212 219 217 218 228 242 249 258 228 247 255 264 246 229 224 214 187 142 84
6 5 2 0 358 356 357 1 356 351 347 346 346 345 340 339 318 15 84 43 326 336 315 254 228 221 226 225 219 225 240 245 250 250 249 255 255 247 247 249 217 217 205 206 251
1 359 357 357 356 355 357 356 356 355 353 349 353 350 344 5 11 339 322 313 317 319 304 275 234 218 228 228 230 239 244 244 257 248 246 247 258 256 251 248 240 233 221 265 278
357 354 353 353 354 355 350 349 348 356 7 2 353 348 15 54 30 329 5 350 358 340 284 251 241 233 239 236 234 237 240 246 246 253 246 255 250 251 250 247 251 252 255 258 265
352 350 350 352 352 353 350 339 338 340 339 343 354 22 43 67 5 358 345 340 333 333 311 258 243 250 273 256 246 240 245 249 253 244 245 246 255 253 248 248 257 259 258 260 260
352 348 348 348 352 356 354 338 330 329 327 340 3 53 46 37 17 9 349 328 304 308 318 295 258 237 264 259 253 255 262 261 246 247 243 246 262 251 250 245 253 254 256 259 258
356 350 346 346 346 347 347 334 326 320 325 342 8 42 344 14 14 357 347 350 327 299 282 293 264 252 251 255 275 256 251 249 239 233 240 234 253 251 247 243 241 252 256 259 261
357 351 341 339 338 338 345 340 335 331 348 351 28 335 86 353 4 351 330 332 322 297 268 262 254 249 251 239 252 240 245 240 251 236 224 216 246 253 256 262 253 250 259 261 263
352 349 343 335 338 337 347 346 342 328 355 3 344 253 219 341 335 336 330 321 311 305 266 249 245 244 232 234 237 239 242 247 257 253 222 229 242 249 258 253 248 252 252 257 257
348 344 341 332 335 336 354 350 318 237 305 279 319 302 316 323 325 313 308 313 285 274 275 269 264 255 262 258 257 266 269 268 261 270 253 243 244 251 246 251 257 258 255 258 264
344 340 338 330 330 355 16 27 22 317 296 285 251 271 293 320 313 336 332 306 302 294 298 269 250 266 279 279 273 264 260 258 259 275 269 242 251 251 248 250 253 255 256 262 265
340 337 332 321 298 356 41 24 352 332 268 287 226 262 281 316 303 296 310 286 285 293 285 278 287 297 269 259 254 254 254 258 254 253 237 252 254 253 252 254 255 258 258 260 264
341 335 334 312 351 355 13 325 332 302 267 126 174 170 278 320 258 304 296 288 285 292 287 287 297 289 268 262 257 267 259 254 258 251 245 230 258 249 242 245 245 251 253 258 262
341 336 332 255 167 34 300 325 321 149 273 66 177 277 312 301 309 316 300 280 291 292 287 271 287 291 271 269 263 262 262 255 246 251 250 242 253 260 255 255 257 257 256 256 262
344 341 344 136 122 28 352 335 145 232 226 151 262 314 310 326 300 308 294 292 272 276 270 269 276 258 273 281 265 259 257 246 248 249 239 237 238 252 252 256 255 254 256 252 257
347 351 102 127 170 356 354 156 251 268 115 45 325 320 317 309 307 331 326 317 327 312 321 312 339 348 321 256 245 234 243 240 228 226 241 237 234 238 266 111 332 230 285 266 252
348 331 158 143 335 344 328 244 279 64 328 334 319 311 302 350 330 328 314 320 110 313 316 344 319 0 324 287 250 222 234 235 242 235 232 227 236 227 235 263 272 251 257 279 276
349 208 162 302 327 332 281 259 315 354 352 323 314 302 314 283 321 316 327 315 341 341 344 314 306 281 343 298 277 227 248 261 268 285 280 232 211 248 255 232 235 212 274 325 321
1 206 242 281 327 310 267 278 289 306 311 300 301 289 315 324 313 328 319 305 318 301 331 312 300 324 294 304 256 254 227 248 240 265 259 239 198 218 210 217 252 115 1 346 345
5 257 308 316 339 266 278 336 306 308 301 286 295 287 300 308 301 306 292 301 297 314 311 308 274 288 287 233 254 272 239 208 212 287 281 243 210 207 200 105 105 58 12 5 356
356 267 316 356 256 228 288 343 329 292 219 273 278 279 283 297 291 290 287 291 316 312 301 327 290 286 290 278 225 175 245 342 267 232 249 273 321 107 119 133 82 16 9 3 3
335 295 326 7 342 325 328 300 268 283 285 289 282 272 304 288 297 292 277 296 295 299 313 353 269 301 288 209 201 217 244 243 244 273 260 270 244 158 183 179 9 1 353 347 352
332 302 151 39 12 321 338 314 300 265 285 282 277 293 286 291 280 276 286 291 292 290 297 314 268 258 274 293 320 295 274 255 270 263 263 259 263 221 225 303 319 336 329 336 341
340 36 348 307 328 324 305 286 293 308 264 295 284 279 296 288 300 290 296 300 298 282 263 252 260 272 271 276 275 275 270 265 257 259 260 263 267 267 273 299 313 312 304 312 324
347 348 326 295 301 293 25 295 305 312 314 289 273 295 301 285 287 289 298 300 263 290 264 229 261 274 275 265 266 268 267 261 257 255 254 259 264 267 273 275 280 288 298 305 317
316 323 291 301 307 301 305 331 314 316 301 270 285 300 291 287 294 294 287 277 262 245 254 244 264 277 268 274 295 278 267 265 260 254 254 254 260 270 269 268 272 279 291 296 303